This demonstration page uses our WeatherBlox Daily Observations layout. Learn more.

Left ArrowRight Arrow

Hourly Observations for May 10, 2016

Temp ( °F °C ) Dew Point ( °F °C ) Humidity (%) Winds ( mph kmh ) Pressure ( in mb ) Visibility ( mi km ) Precip ( " mm )
12:53 am 00:53 Mostly Cloudy with Light Rain 58 14.4 55 12.8 90 90 E 8 13 30.04 1017 8 13 N/A
1:53 am 01:53 Mostly Clear 58 14.4 55 12.8 90 90 ESE 5 7 30.04 1017 8 13 N/A
2:53 am 02:53 Cloudy 57 13.9 55 12.8 93 93 E 7 11 30.03 1017 8 13 N/A
3:53 am 03:53 Cloudy 57 13.9 55 12.8 93 93 E 5 7 30.03 1017 7 11 N/A
4:53 am 04:53 Cloudy with Mist and Fog 57 13.9 55 12.8 93 93 E 6 9 30.04 1017 6 10 N/A
5:53 am 05:53 Mostly Clear with Mist and Fog 57 13.9 55 12.8 93 93 E 8 13 30.02 1017 6 10 N/A
6:53 am 06:53 Cloudy with Mist and Fog 57 13.9 55 12.8 93 93 E 8 13 30.01 1016 6 10 N/A
7:53 am 07:53 Mostly Cloudy 60 15.6 56 13.3 86 86 ESE 6 9 30.02 1017 7 11 N/A
8:53 am 08:53 Cloudy 63 17.2 57 13.9 81 81 N N/A 30.02 1017 9 14 N/A
9:53 am 09:53 Mostly Cloudy 65 18.3 57 13.9 76 76 VRB 6 9 30.01 1016 10 16 N/A
10:53 am 10:53 Mostly Cloudy 69 20.6 58 14.4 68 68 S 9 15 30.01 1016 10 16 N/A
11:06 am 11:06 Cloudy with Heavy Rain 66 18.9 59 15 78 78 S 9 15 30.03 1017 2 3 0.04 1.02
11:13 am 11:13 Cloudy with Heavy Rain 64 17.8 60 15.6 87 87 VRB 7 11 30.03 1017 1 2 0.08 2.03
11:22 am 11:22 Cloudy with Rain 64 17.8 61 16.1 90 90 VRB 3 6 30.03 1017 2 3 0.11 2.79
11:34 am 11:34 Cloudy with Light Rain 65 18.3 62 16.7 90 90 VRB 7 11 30.03 1017 7 11 0.12 3.05
11:53 am 11:53 Cloudy with Light Rain 66 18.9 62 16.7 87 87 VRB 5 7 30.00 1016 9 14 0.12 3.05
12:53 pm 12:53 Cloudy with Rain 66 18.9 63 17.2 90 90 VRB 3 6 30.00 1016 3 5 0.02 0.51
1:11 pm 13:11 Cloudy with Light Rain 66 18.9 63 17.2 90 90 S 3 6 30.00 1016 3 5 0.02 0.51
1:13 pm 13:13 Cloudy with Rain 66 18.9 63 17.2 90 90 VRB 5 7 30.00 1016 2 3 0.05 1.27
1:20 pm 13:20 Cloudy with Heavy Rain 65 18.3 63 17.2 93 93 VRB 3 6 30.00 1016 1 2 0.09 2.29
1:29 pm 13:29 Cloudy with Heavy Rain 65 18.3 63 17.2 93 93 VRB 3 6 30.00 1016 1 1 0.15 3.81
1:34 pm 13:34 Cloudy with Light Rain 65 18.3 64 17.8 97 97 VRB 3 6 30.00 1016 2 3 0.15 3.81
1:36 pm 13:36 Cloudy with Light Rain 66 18.9 64 17.8 93 93 N N/A 30.00 1016 3 5 0.15 3.81
1:46 pm 13:46 Cloudy 66 18.9 64 17.8 93 93 SSW 3 6 30.00 1016 8 13 0.15 3.81
1:53 pm 13:53 Cloudy 67 19.4 64 17.8 91 91 N N/A 30.00 1016 9 14 0.15 3.81
2:53 pm 14:53 Mostly Cloudy 71 21.7 65 18.3 81 81 SSW 8 13 29.99 1016 10 16 N/A
3:24 pm 15:24 Mostly Cloudy 73 22.8 64 17.8 74 74 SW 7 11 30.00 1016 10 16 N/A
3:53 pm 15:53 Partly Cloudy 73 22.8 64 17.8 74 74 VRB 6 9 29.99 1016 10 16 N/A
4:05 pm 16:05 Mostly Cloudy with Nearby Thunderstorms 72 22.2 63 17.2 73 73 SW 9 15 30.00 1016 10 16 N/A
4:17 pm 16:17 Cloudy with Thunderstorms 69 20.6 63 17.2 81 81 SW 9 15 30.03 1017 3 5 0.01 0.25
4:25 pm 16:25 Cloudy with Thunderstorms 67 19.4 64 17.8 91 91 SSW 8 13 30.03 1017 2 3 0.04 1.02
4:32 pm 16:32 Cloudy with Nearby Thunderstorms 66 18.9 63 17.2 90 90 VRB 6 9 30.00 1016 2 3 0.06 1.52
4:38 pm 16:38 Cloudy with Light Thunderstorms 66 18.9 63 17.2 90 90 VRB 3 6 30.00 1016 3 5 0.07 1.78
4:53 pm 16:53 Cloudy with Nearby Thunderstorms 66 18.9 63 17.2 90 90 E 10 17 29.94 1014 6 10 0.08 2.03
5:02 pm 17:02 Cloudy with Light Rain 65 18.3 63 17.2 93 93 VRB 3 6 29.97 1015 9 14 0.01 0.25
5:53 pm 17:53 Mostly Sunny 64 17.8 60 15.6 87 87 E 9 15 29.96 1014 10 16 0.01 0.25
6:53 pm 18:53 Mostly Cloudy 65 18.3 61 16.1 87 87 ESE 5 7 29.98 1015 10 16 N/A
7:53 pm 19:53 Mostly Sunny 64 17.8 61 16.1 90 90 N N/A 29.99 1016 10 16 N/A
8:53 pm 20:53 Mostly Cloudy 62 16.7 60 15.6 93 93 NNW 5 7 30.01 1016 10 16 0.01 0.25
9:53 pm 21:53 Mostly Cloudy 62 16.7 61 16.1 96 96 N N/A 30.01 1016 10 16 N/A
10:53 pm 22:53 Clear 60 15.6 58 14.4 93 93 E 3 6 30.00 1016 10 16 0.01 0.25
11:53 pm 23:53 Clear 58 14.4 57 13.9 97 97 E 3 6 30.01 1016 8 13 N/A

Powered by AerisWeather